Regional Weather Roundup
Issued by NWS

Home | Current Version | Previous Version | Graphics & Text | Print | Product List | Glossary On
Versions: 1 2 3 4 5 6 7 8 9 10 11 12 13 14 15 16 17 18 19 20 21 22 23 24 25 26 27 28 29 30 31 32 33 34 35 36 37 38 39 40 41 42 43 44 45 46 47 48 49 50
000
ASUS43 KLSX 231259
RWRMO

WEATHER SUMMARY FOR MISSOURI
NATIONAL WEATHER SERVICE SPRINGFIELD MO
800 AM CDT THU OCT 23 2014

NOTE: "FAIR" INDICATES FEW OR NO CLOUDS BELOW 12,000 FEET WITH NO
       SIGNIFICANT WEATHER AND/OR OBSTRUCTIONS TO VISIBILITY.
       CURRENT SKY AND/OR WEATHER CONDITIONS ARE NOT AVAILABLE FOR
       CHILLICOTHE AND FARMINGTON.

MOZ001>031-035>038-043-044-053-054-231400-
...NORTHERN AND WESTERN MISSOURI...

CITY           SKY/WX    TMP DP  RH WIND       PRES   REMARKS
KANSAS CTY INT CLOUDY    56  55  97 S6        30.07S FOG
KANSAS C DTWN  CLOUDY    58  56  93 E5        30.07S
LEE`S SUMMIT   CLOUDY    56  53  90 S9        30.08S
ST JOSEPH      FOG       53  53 100 CALM      30.06S VSB 1/4
KIRKSVILLE     CLOUDY    51  46  83 S7        30.11S

$$
MOZ066>068-077>081-088>096-101>105-231400-
...SOUTHWEST MISSOURI...

CITY           SKY/WX    TMP DP  RH WIND       PRES   REMARKS
SPRINGFIELD    CLOUDY    53  43  68 S13       30.16R
JOPLIN         CLOUDY    58  52  80 S7        30.16R

$$
MOZ032>034-039>042-045>050-055>058-069>072-231400-
...CENTRAL MISSOURI...

CITY           SKY/WX    TMP DP  RH WIND       PRES   REMARKS
COLUMBIA       CLOUDY    48  44  86 S8        30.15S
JEFFERSON CITY CLOUDY    48  42  80 SE7       30.17R
ROLLA          CLOUDY    46  41  82 S8        30.16S
SEDALIA        CLOUDY    56  46  69 S12       30.14S
OSAGE BEACH    CLOUDY    50  41  71 S7        30.17S

$$
MOZ051-052-059>065-231400-
...EAST CENTRAL MISSOURI...

CITY           SKY/WX    TMP DP  RH WIND       PRES   REMARKS
ST LOUIS INTL  MOCLDY    49  41  74 S3        30.21S
SPIRIT OF STL  MOCLDY    41  38  89 CALM      30.20S
ST CHARLES     PTCLDY    42  40  92 E5        30.20F FOG

$$
MOZ072>076-082>087-097>100-106>115-231400-
...SOUTH CENTRAL AND SOUTHEAST MISSOURI...

CITY           SKY/WX    TMP DP  RH WIND       PRES   REMARKS
CAPE GIRARDEAU FOG       35  35 100 CALM      30.23R VSB 1/4
FARMINGTON     MOCLDY    36  34  93 CALM      30.22S
POPLAR BLUFF   PTCLDY    41  37  86 CALM      30.21R
WEST PLAINS    CLOUDY    41  39  93 CALM      30.21S

$$



USA.gov is the U.S. government's official web portal to all federal, state and local government web resources and services.